Location: Campos dos Goitacazes
(21.7500°S, 41.3000°W)
Time: 12:23:53
(UTC-03:00)

Tiangong - Pass Details

Date: 27 June 2024
Orbit: 374 x 378 km, 41.5° (Epoch: 16 July)

Event Time Altitude Azimuth Distance (km) Brightness Sun altitude
Exits shadow 04:43:39 42° 94° (E) 556 -1.0 -22.6°
Drops below altitude 10° 04:46:00 10° 64° (ENE) 1,378 1.8 -22.1°
Sets 04:48:06 0° 60° (ENE) 2,234 3.1 -21.6°
